When you browse on this site, cookies collect data to enhance your experience and personalize the content and advertising you see.
Visit our Privacy Policy to learn more. By continuing to use the site, you agree to this use of cookies and data.
  • In Czech Republic
  • List of Countries
  • For 7 days
  • Water Temperature
  • Weather Map
  • Weather Widgets
  • user-avatar
    Login

    Hourly Weather La Rioja

    Today, 22 February, Saturday

    Time Temperature Precipitation Wind Pressure Humidity
    00:00 +20°C° 0 mm 1 mps 723 mmHg 47%
    01:00 +20°C° 0 mm 1 mps 722 mmHg 47%
    02:00 +20°C° 0 mm 1 mps 721 mmHg 44%
    03:00 +19°C° 0 mm 1 mps 721 mmHg 47%
    04:00 +17°C° 0 mm 0 mps 721 mmHg 50%
    05:00 +16°C° 0 mm 0 mps 720 mmHg 53%
    06:00 +17°C° 0 mm 0 mps 721 mmHg 49%
    07:00 +20°C° 0 mm 1 mps 721 mmHg 46%
    08:00 +20°C° 0 mm 1 mps 721 mmHg 46%
    09:00 +21°C° 0 mm 1 mps 721 mmHg 44%
    10:00 +23°C° 0 mm 2 mps 721 mmHg 42%
    11:00 +24°C° 0 mm 2 mps 721 mmHg 39%
    12:00 +24°C° 0 mm 3 mps 720 mmHg 38%
    13:00 +25°C° 0 mm 3 mps 719 mmHg 37%
    14:00 +26°C° 0 mm 3 mps 718 mmHg 36%
    15:00 +26°C° 0 mm 3 mps 717 mmHg 36%
    16:00 +27°C° 0 mm 3 mps 717 mmHg 36%
    17:00 +27°C° 0 mm 3 mps 717 mmHg 36%
    18:00 +26°C° 0 mm 2 mps 717 mmHg 39%
    19:00 +25°C° 0 mm 2 mps 717 mmHg 42%
    20:00 +23°C° 0 mm 2 mps 717 mmHg 45%
    21:00 +23°C° 0 mm 2 mps 717 mmHg 47%
    22:00 +21°C° 0 mm 2 mps 718 mmHg 48%
    23:00 +21°C° 0 mm 2 mps 718 mmHg 50%

    Tomorrow, 23 February, Sunday

    Time Temperature Precipitation Wind Pressure Humidity
    00:00 +20°C° 0 mm 2 mps 717 mmHg 52%
    01:00 +21°C° 0 mm 1 mps 717 mmHg 54%
    02:00 +20°C° 0 mm 1 mps 716 mmHg 55%
    03:00 +20°C° 0 mm 1 mps 716 mmHg 57%
    04:00 +20°C° 0 mm 1 mps 716 mmHg 59%
    05:00 +19°C° 0 mm 1 mps 715 mmHg 60%
    06:00 +20°C° 0 mm 1 mps 715 mmHg 57%
    07:00 +21°C° 0 mm 1 mps 716 mmHg 53%
    08:00 +22°C° 0 mm 1 mps 716 mmHg 49%
    09:00 +24°C° 0 mm 1 mps 715 mmHg 47%
    10:00 +25°C° 0 mm 2 mps 715 mmHg 44%
    11:00 +26°C° 0 mm 2 mps 715 mmHg 42%
    12:00 +27°C° 0 mm 2 mps 714 mmHg 41%
    13:00 +28°C° 0 mm 2 mps 714 mmHg 39%
    14:00 +29°C° 0 mm 2 mps 713 mmHg 38%
    15:00 +30°C° 0 mm 2 mps 712 mmHg 38%
    16:00 +30°C° 0 mm 2 mps 711 mmHg 38%
    17:00 +30°C° 0 mm 2 mps 711 mmHg 37%
    18:00 +29°C° 0 mm 2 mps 711 mmHg 41%
    19:00 +27°C° 0 mm 2 mps 711 mmHg 45%
    20:00 +26°C° 0 mm 1 mps 711 mmHg 49%
    21:00 +25°C° 0 mm 1 mps 711 mmHg 52%
    22:00 +25°C° 0 mm 1 mps 711 mmHg 55%
    23:00 +24°C° 0 mm 1 mps 712 mmHg 58%

    Day after tomorrow, 24 February, Monday

    Time Temperature Precipitation Wind Pressure Humidity
    00:00 +24°C° 0 mm 1 mps 711 mmHg 60%
    01:00 +21°C° 0 mm 0 mps 711 mmHg 62%
    02:00 +21°C° 0 mm 0 mps 710 mmHg 64%
    03:00 +22°C° 0 mm 1 mps 710 mmHg 64%
    04:00 +22°C° 0 mm 1 mps 710 mmHg 64%
    05:00 +22°C° 0 mm 1 mps 710 mmHg 64%
    06:00 +23°C° 0 mm 1 mps 710 mmHg 61%
    07:00 +24°C° 0 mm 1 mps 710 mmHg 57%
    08:00 +25°C° 0 mm 1 mps 710 mmHg 53%
    09:00 +27°C° 0 mm 2 mps 710 mmHg 50%
    10:00 +28°C° 0 mm 2 mps 710 mmHg 47%
    11:00 +29°C° 0 mm 2 mps 710 mmHg 44%
    12:00 +30°C° 0 mm 2 mps 709 mmHg 42%
    13:00 +31°C° 0 mm 2 mps 708 mmHg 40%
    14:00 +32°C° 0 mm 2 mps 707 mmHg 39%
    15:00 +32°C° 0 mm 2 mps 707 mmHg 37%
    16:00 +34°C° 0 mm 2 mps 706 mmHg 36%
    17:00 +34°C° 0 mm 2 mps 706 mmHg 35%
    18:00 +32°C° 0 mm 2 mps 706 mmHg 39%
    19:00 +30°C° 0 mm 2 mps 707 mmHg 42%
    20:00 +29°C° 0 mm 2 mps 707 mmHg 46%
    21:00 +28°C° 0 mm 2 mps 707 mmHg 47%
    22:00 +28°C° 0 mm 2 mps 708 mmHg 48%
    23:00 +27°C° 0 mm 2 mps 708 mmHg 49%

    25 February, Tuesday

    Time Temperature Precipitation Wind Pressure Humidity
    00:00 +27°C° 0 mm 2 mps 708 mmHg 50%
    01:00 +26°C° 0 mm 2 mps 709 mmHg 51%
    02:00 +26°C° 0 mm 2 mps 709 mmHg 53%
    03:00 +26°C° 0 mm 3 mps 709 mmHg 54%
    04:00 +25°C° 0 mm 3 mps 710 mmHg 56%
    05:00 +25°C° 0 mm 4 mps 710 mmHg 58%
    06:00 +25°C° 0 mm 4 mps 711 mmHg 56%
    07:00 +25°C° 0 mm 5 mps 712 mmHg 54%
    08:00 +26°C° 0 mm 5 mps 713 mmHg 53%
    09:00 +27°C° 0 mm 5 mps 713 mmHg 49%
    10:00 +28°C° 0 mm 6 mps 714 mmHg 45%
    11:00 +29°C° 0 mm 6 mps 714 mmHg 41%
    12:00 +30°C° 0 mm 5 mps 714 mmHg 40%
    13:00 +30°C° 0 mm 5 mps 714 mmHg 39%
    14:00 +32°C° 0 mm 4 mps 713 mmHg 38%
    15:00 +32°C° 0 mm 4 mps 713 mmHg 38%
    16:00 +32°C° 0 mm 4 mps 713 mmHg 38%
    17:00 +31°C° 0 mm 3 mps 713 mmHg 39%
    18:00 +30°C° 0 mm 3 mps 713 mmHg 43%
    19:00 +29°C° 0 mm 2 mps 714 mmHg 47%
    20:00 +28°C° 0 mm 2 mps 715 mmHg 52%
    21:00 +27°C° 0 mm 1 mps 715 mmHg 54%
    22:00 +26°C° 0 mm 1 mps 716 mmHg 55%
    23:00 +26°C° 0 mm 1 mps 716 mmHg 57%

    26 February, Wednesday

    Time Temperature Precipitation Wind Pressure Humidity
    00:00 +25°C° 0 mm 1 mps 716 mmHg 59%
    01:00 +25°C° 0 mm 1 mps 716 mmHg 60%
    02:00 +25°C° 0 mm 1 mps 716 mmHg 61%
    03:00 +24°C° 0 mm 1 mps 716 mmHg 62%
    04:00 +24°C° 0 mm 1 mps 716 mmHg 64%
    05:00 +23°C° 0 mm 1 mps 716 mmHg 65%
    06:00 +24°C° 0 mm 1 mps 717 mmHg 63%
    07:00 +25°C° 0 mm 2 mps 717 mmHg 60%
    08:00 +25°C° 0 mm 2 mps 717 mmHg 58%
    09:00 +27°C° 0 mm 2 mps 717 mmHg 55%
    10:00 +28°C° 0 mm 2 mps 717 mmHg 51%
    11:00 +29°C° 0 mm 2 mps 717 mmHg 48%
    12:00 +30°C° 0 mm 2 mps 716 mmHg 45%
    13:00 +31°C° 0 mm 2 mps 716 mmHg 42%
    14:00 +33°C° 0 mm 3 mps 715 mmHg 40%
    15:00 +33°C° 0 mm 3 mps 714 mmHg 38%
    16:00 +33°C° 0 mm 4 mps 714 mmHg 37%
    17:00 +33°C° 0 mm 5 mps 713 mmHg 36%
    18:00 +30°C° 0 mm 4 mps 713 mmHg 36%
    19:00 +29°C° 0 mm 4 mps 714 mmHg 37%
    20:00 +28°C° 0 mm 4 mps 714 mmHg 37%
    21:00 +27°C° 0 mm 3 mps 715 mmHg 39%
    22:00 +26°C° 0 mm 3 mps 715 mmHg 40%
    23:00 +25°C° 0 mm 2 mps 716 mmHg 42%

    27 February, Thursday

    Time Temperature Precipitation Wind Pressure Humidity
    00:00 +24°C° 0 mm 2 mps 715 mmHg 44%
    01:00 +23°C° 0 mm 1 mps 715 mmHg 47%
    02:00 +23°C° 0 mm 1 mps 715 mmHg 50%
    03:00 +22°C° 0 mm 1 mps 715 mmHg 51%
    04:00 +22°C° 0 mm 1 mps 715 mmHg 52%
    05:00 +22°C° 0 mm 1 mps 715 mmHg 53%
    06:00 +22°C° 0 mm 1 mps 715 mmHg 50%
    07:00 +23°C° 0 mm 1 mps 715 mmHg 46%
    08:00 +24°C° 0 mm 1 mps 716 mmHg 43%
    09:00 +25°C° 0 mm 1 mps 715 mmHg 41%
    10:00 +26°C° 0 mm 2 mps 715 mmHg 39%
    11:00 +28°C° 0 mm 2 mps 715 mmHg 36%
    12:00 +29°C° 0 mm 2 mps 714 mmHg 35%
    13:00 +30°C° 0 mm 2 mps 714 mmHg 34%
    14:00 +31°C° 0 mm 2 mps 713 mmHg 34%
    15:00 +31°C° 0 mm 3 mps 712 mmHg 34%
    16:00 +31°C° 0 mm 3 mps 711 mmHg 34%
    17:00 +31°C° 0 mm 3 mps 711 mmHg 34%
    18:00 +30°C° 0 mm 3 mps 711 mmHg 37%
    19:00 +28°C° 0 mm 3 mps 711 mmHg 41%
    20:00 +27°C° 0 mm 3 mps 712 mmHg 45%
    21:00 +26°C° 0.1 mm 2 mps 712 mmHg 46%
    22:00 +26°C° 0.1 mm 2 mps 713 mmHg 48%
    23:00 +25°C° 0.1 mm 2 mps 713 mmHg 50%
    Show more